Wind_Speed
15 15 14 15 15 15 16 16 16 15 15 16 18 18 18 20 24 29 32 32 32 32 32 31 32 33 32 31 30 29 28 26 24 23 22 22 21 19 18 20 21 21 21
16 17 17 18 19 19 18 17 17 17 16 16 17 19 20 21 22 25 30 31 32 33 35 35 36 36 35 33 33 33 31 28 26 25 26 25 24 22 20 21 22 23 22
18 19 20 21 22 21 20 19 19 18 16 15 17 18 19 20 22 25 29 31 32 33 34 34 34 33 32 33 34 35 34 31 29 28 28 27 26 23 22 22 23 24 22
18 20 22 22 23 23 22 21 20 19 17 17 18 19 19 19 19 22 26 29 31 33 33 33 33 32 31 31 32 33 33 32 30 28 27 25 23 21 20 21 21 21 21
20 21 22 22 22 22 23 22 21 21 20 19 19 20 22 23 23 22 22 24 27 31 33 33 33 32 31 30 29 30 30 31 30 28 26 24 22 19 20 21 21 21 21
24 24 23 22 22 22 23 22 22 22 22 22 21 22 22 22 22 21 22 24 26 27 31 33 33 31 30 31 30 29 30 30 29 27 27 26 23 20 19 21 22 23 24
27 27 25 24 23 23 24 24 24 24 25 24 23 23 23 22 21 21 21 24 26 27 28 30 32 32 30 30 32 32 31 31 29 27 27 27 25 22 20 21 21 22 24
27 27 26 25 24 25 25 25 25 25 25 25 25 24 24 24 24 23 23 24 26 27 27 28 30 32 32 31 32 32 32 32 30 29 28 27 26 25 23 22 22 22 24
26 27 27 27 26 26 26 27 26 25 25 24 25 25 25 26 26 27 26 26 28 29 28 27 26 30 33 33 33 33 33 33 32 30 28 28 27 26 25 24 24 23 24
27 28 28 28 27 26 27 28 29 28 27 26 25 25 25 25 26 28 28 28 28 29 29 28 28 28 31 34 35 34 34 33 33 32 31 30 28 26 25 25 25 24 25
27 27 28 28 28 28 29 30 31 30 29 28 27 26 25 26 28 30 30 29 27 26 26 27 27 28 28 31 35 37 36 35 34 34 33 31 29 27 26 27 28 28 28
25 24 24 25 27 28 30 30 31 30 30 29 28 27 26 27 27 29 30 29 27 24 22 24 26 27 27 26 29 34 37 38 37 36 34 32 31 31 30 31 31 30 29
20 19 19 20 23 25 26 28 29 29 30 30 29 28 27 26 24 25 28 28 27 24 22 21 23 25 27 27 27 29 32 35 38 38 36 34 34 35 34 34 34 33 31
17 16 16 16 17 18 20 23 25 26 27 27 26 25 25 25 24 24 26 27 26 25 24 23 21 22 24 27 28 29 30 30 32 33 34 36 36 36 37 37 36 35 34
15 14 13 13 14 15 17 17 17 18 19 19 19 20 21 23 23 24 25 25 24 23 24 24 24 23 23 23 24 27 30 32 32 31 31 33 35 36 36 37 36 36 36
13 12 12 12 12 14 14 12 7 4 8 12 14 16 18 19 21 22 23 23 22 22 23 23 23 21 20 20 22 24 27 30 32 33 33 33 34 34 35 36 37 37 36
12 12 11 11 11 12 13 12 9 4 4 6 9 11 13 16 17 18 19 20 21 20 21 21 21 20 20 19 20 21 22 24 26 29 32 34 35 36 36 37 37 36 36
12 11 11 11 11 11 11 11 9 6 3 4 6 8 10 12 14 15 17 17 18 18 19 19 20 21 22 23 24 24 25 25 25 27 29 31 32 33 33 34 34 35 36
12 11 10 10 10 11 11 10 9 7 4 1 2 4 6 8 10 12 13 14 15 16 18 20 21 23 24 26 27 28 29 30 30 30 30 29 28 28 28 29 31 32 34
12 11 9 8 9 9 9 10 10 9 7 4 2 1 3 5 7 9 12 14 15 16 18 20 21 22 23 24 25 27 28 30 32 33 33 31 29 28 28 28 29 31 34
12 10 9 8 8 8 8 9 9 9 7 6 4 3 2 1 4 6 8 10 12 14 16 17 18 19 20 21 23 24 26 28 29 31 32 32 32 31 31 31 32 33 31
12 10 9 9 8 8 8 8 8 8 7 6 5 4 4 3 3 4 5 7 9 11 13 15 16 17 17 17 17 18 20 22 24 26 28 30 31 32 33 33 33 34 33
12 11 10 10 9 9 9 9 9 8 7 7 7 6 6 5 5 5 6 7 8 10 12 14 15 15 15 15 14 14 15 16 18 19 22 24 27 29 32 33 33 34 33
13 13 12 12 12 12 12 12 12 12 11 11 11 11 10 9 8 7 6 6 7 9 10 12 13 12 12 11 11 12 12 13 12 13 14 16 19 22 26 31 33 35 35
13 14 14 15 15 15 14 14 13 13 13 14 14 13 12 11 10 9 9 9 10 12 12 12 11 8 8 8 10 11 11 10 9 8 9 11 14 16 18 20 22 25 27
15 16 17 18 18 18 18 17 16 16 16 16 15 15 14 14 14 14 13 13 14 14 14 13 12 10 7 6 7 8 8 7 7 7 8 10 12 14 16 18 19 20 21
Wind_Direction
279 284 288 291 293 294 292 292 291 288 276 261 253 254 249 242 238 233 232 233 237 238 238 240 242 241 242 244 245 245 247 248 252 251 251 252 253 252 253 258 261 261 262
274 279 284 289 291 292 292 292 291 287 281 269 259 256 255 252 248 242 236 234 237 240 242 244 246 246 243 244 244 243 241 242 247 249 251 253 253 251 251 257 264 265 265
271 276 281 284 286 287 288 289 289 285 276 265 257 255 256 256 253 248 244 242 241 240 241 243 244 243 242 240 240 239 238 240 244 249 252 252 252 250 253 259 263 265 266
277 279 280 281 283 284 283 283 281 277 270 264 260 258 258 258 258 256 251 249 245 240 240 241 241 240 238 237 236 234 236 238 242 245 247 250 250 252 256 257 258 260 263
291 289 286 282 282 280 278 276 274 269 266 263 263 263 261 260 261 261 256 252 247 241 239 238 238 238 236 234 232 232 235 237 239 241 245 248 252 255 257 255 254 257 260
299 297 293 286 281 276 273 273 271 269 268 265 262 260 260 260 260 259 255 254 253 248 241 237 235 234 233 231 229 230 233 235 236 238 241 246 250 253 254 256 257 259 260
300 299 294 288 279 274 272 273 272 269 268 266 259 254 255 257 259 258 255 252 249 248 243 237 232 230 230 230 228 228 229 231 231 233 237 244 249 249 253 255 256 257 258
297 295 291 288 283 279 278 277 274 271 268 265 259 253 254 259 259 256 252 251 249 246 244 240 236 232 229 228 226 226 227 229 230 231 233 237 242 246 251 250 252 256 257
297 294 291 288 284 279 277 275 273 272 270 265 258 255 255 259 259 255 250 249 250 249 247 244 242 236 231 228 226 225 226 229 229 229 231 235 241 246 249 249 254 256 257
298 294 291 288 284 280 276 273 273 271 268 265 259 254 254 254 251 250 249 247 247 248 247 245 244 240 236 232 229 227 227 228 227 227 231 236 241 245 246 247 250 255 259
299 293 288 285 284 281 278 275 273 271 268 264 260 257 253 248 245 244 245 245 245 246 247 248 248 246 241 238 234 232 229 228 228 230 235 239 242 245 248 250 251 256 260
304 298 292 287 284 282 280 277 272 269 266 263 260 258 254 248 243 238 237 239 241 243 245 248 250 251 245 240 236 233 230 229 228 230 232 236 240 243 246 249 253 258 261
313 309 302 296 291 287 283 278 273 268 263 260 259 257 252 238 234 233 232 235 237 241 246 250 253 255 253 245 235 228 228 230 230 231 233 236 240 244 245 249 255 257 261
322 320 315 311 308 303 295 285 275 266 258 254 251 249 239 230 231 231 231 234 237 240 245 250 254 261 264 257 246 236 231 230 233 236 241 244 246 247 249 252 256 256 257
331 333 334 335 333 326 318 305 286 266 251 243 236 230 227 226 227 229 230 233 238 242 245 249 255 260 263 262 256 251 245 239 237 240 245 246 247 248 252 254 257 257 256
337 340 344 348 351 352 353 350 338 267 220 211 212 213 216 221 225 228 230 233 237 241 244 247 251 254 256 257 255 253 251 248 245 243 245 247 249 251 255 258 259 259 255
338 339 345 351 360 9 16 23 34 67 144 179 195 205 212 219 225 228 231 234 237 242 244 243 246 252 257 258 256 254 253 252 250 249 249 251 253 254 257 258 258 257 255
342 342 349 357 4 10 17 25 35 51 88 155 188 203 214 222 228 232 235 236 240 244 244 244 247 254 259 261 260 259 258 257 256 254 252 251 252 254 256 256 254 255 255
349 351 356 2 8 14 18 22 26 29 32 54 195 208 216 223 228 231 235 239 246 249 250 252 256 261 265 266 266 264 263 261 260 258 256 253 251 252 254 255 252 253 255
356 359 1 2 5 9 13 16 19 21 23 24 20 252 239 243 245 247 250 255 259 261 261 263 265 268 270 270 269 268 266 263 261 259 257 255 253 251 249 249 248 250 253
0 6 9 9 6 4 3 5 12 20 28 36 40 40 26 298 273 269 269 270 271 271 270 270 272 276 278 277 276 273 271 267 263 259 257 254 251 248 245 244 246 248 250
11 18 21 19 15 7 0 1 7 16 24 27 26 23 16 5 345 322 301 288 282 280 279 279 279 281 283 284 284 283 281 276 268 261 256 253 249 245 243 242 244 247 248
25 30 32 32 31 29 26 25 27 30 31 28 24 21 15 5 352 341 329 318 309 303 298 294 290 286 283 283 284 287 289 286 277 265 257 251 248 244 241 241 243 245 244
36 40 44 46 48 49 49 50 51 51 52 51 50 47 43 38 33 26 16 1 348 337 327 318 309 296 286 281 282 286 292 293 287 273 258 250 246 245 246 247 249 254 255
48 53 56 58 60 62 63 63 62 61 59 57 55 53 50 46 41 34 24 14 8 1 355 348 343 327 305 290 288 289 295 297 292 279 265 256 253 254 252 253 254 256 258
59 61 63 64 65 66 66 65 64 62 60 57 54 51 46 42 37 31 25 20 17 14 13 12 11 8 354 331 316 305 301 300 294 288 282 275 272 269 265 261 260 261 262
Height
5778 5777 5776 5775 5775 5774 5773 5773 5772 5772 5772 5773 5775 5776 5778 5780 5782 5785 5788 5791 5794 5797 5800 5803 5806 5808 5811 5813 5816 5818 5820 5821 5823 5825 5827 5829 5830 5831 5832 5834 5836 5837 5838
5772 5772 5771 5770 5769 5769 5768 5768 5767 5767 5767 5768 5769 5771 5773 5775 5776 5778 5781 5783 5787 5790 5793 5796 5799 5801 5803 5805 5808 5810 5812 5815 5817 5819 5820 5822 5824 5826 5827 5828 5830 5832 5833
5767 5766 5766 5765 5764 5763 5763 5762 5762 5761 5762 5763 5765 5766 5767 5768 5770 5772 5774 5776 5778 5781 5784 5788 5790 5792 5795 5797 5799 5802 5805 5807 5810 5812 5814 5816 5817 5819 5821 5823 5824 5826 5827
5761 5761 5760 5759 5758 5757 5757 5757 5757 5757 5757 5758 5759 5760 5761 5762 5764 5765 5767 5768 5770 5773 5776 5779 5782 5784 5787 5789 5791 5794 5797 5800 5803 5806 5808 5809 5811 5813 5815 5817 5819 5820 5821
5756 5755 5754 5753 5752 5751 5750 5750 5751 5751 5751 5752 5753 5754 5755 5756 5757 5758 5760 5761 5763 5765 5768 5771 5774 5776 5779 5782 5785 5787 5790 5793 5796 5799 5802 5804 5806 5808 5810 5811 5813 5815 5816
5749 5748 5747 5746 5745 5744 5744 5744 5744 5744 5745 5746 5747 5748 5749 5750 5750 5751 5753 5755 5757 5758 5760 5763 5766 5769 5772 5774 5778 5781 5784 5787 5790 5793 5796 5798 5800 5802 5805 5806 5808 5809 5811
5741 5740 5738 5738 5737 5737 5736 5736 5737 5738 5738 5739 5740 5742 5743 5744 5745 5745 5746 5748 5750 5752 5753 5756 5759 5762 5765 5768 5770 5774 5777 5780 5784 5787 5790 5792 5794 5797 5799 5801 5803 5803 5805
5734 5732 5730 5729 5729 5729 5729 5728 5729 5730 5730 5731 5733 5734 5735 5737 5738 5739 5740 5741 5743 5745 5746 5749 5751 5754 5757 5760 5764 5767 5770 5773 5777 5781 5783 5785 5788 5790 5793 5795 5796 5797 5797
5727 5724 5722 5721 5721 5721 5720 5720 5720 5721 5722 5723 5724 5726 5728 5729 5730 5732 5733 5735 5736 5738 5740 5742 5744 5746 5750 5753 5756 5760 5763 5766 5770 5773 5776 5778 5781 5784 5786 5788 5789 5790 5791
5720 5717 5714 5713 5712 5712 5712 5711 5712 5712 5713 5714 5716 5718 5720 5721 5723 5725 5726 5728 5729 5732 5734 5735 5737 5739 5742 5745 5748 5752 5755 5759 5762 5766 5768 5771 5773 5777 5779 5781 5782 5783 5784
5712 5709 5707 5705 5703 5703 5703 5703 5703 5703 5704 5705 5707 5709 5711 5713 5715 5717 5719 5721 5723 5725 5727 5729 5731 5732 5734 5737 5740 5743 5747 5751 5755 5758 5761 5764 5767 5770 5772 5774 5775 5776 5777
5704 5702 5699 5697 5696 5694 5693 5693 5693 5694 5694 5695 5697 5700 5702 5704 5707 5709 5711 5714 5716 5719 5721 5723 5724 5726 5727 5729 5732 5735 5739 5743 5746 5750 5753 5756 5759 5762 5764 5765 5766 5768 5770
5699 5695 5693 5690 5688 5686 5685 5683 5683 5683 5684 5685 5688 5690 5693 5696 5699 5701 5704 5707 5710 5713 5715 5717 5718 5720 5721 5723 5725 5728 5731 5735 5738 5741 5744 5748 5750 5753 5755 5757 5758 5760 5762
5694 5691 5688 5685 5682 5679 5676 5674 5672 5672 5673 5676 5679 5682 5685 5689 5692 5695 5698 5701 5704 5707 5709 5711 5713 5714 5715 5716 5718 5721 5724 5727 5729 5732 5735 5738 5741 5744 5746 5748 5750 5751 5754
5691 5688 5685 5682 5678 5675 5671 5666 5663 5663 5664 5667 5671 5674 5679 5682 5686 5690 5693 5696 5699 5702 5704 5706 5708 5709 5711 5711 5712 5714 5716 5719 5722 5725 5728 5730 5733 5735 5737 5739 5741 5743 5745
5690 5687 5684 5681 5678 5673 5668 5663 5659 5658 5660 5663 5666 5670 5674 5678 5682 5685 5688 5691 5694 5697 5699 5701 5703 5704 5705 5706 5707 5708 5710 5712 5714 5717 5720 5723 5725 5727 5728 5730 5731 5733 5735
5689 5687 5684 5681 5678 5674 5670 5666 5663 5662 5662 5664 5666 5669 5672 5675 5678 5681 5684 5687 5689 5691 5693 5695 5697 5698 5700 5701 5702 5703 5704 5705 5707 5709 5712 5714 5716 5718 5719 5720 5722 5723 5724
5689 5686 5684 5681 5678 5676 5673 5670 5668 5667 5666 5667 5668 5670 5672 5674 5676 5678 5680 5682 5684 5686 5687 5689 5691 5692 5693 5694 5695 5696 5697 5698 5699 5701 5702 5704 5706 5707 5709 5710 5711 5712 5713
5689 5686 5684 5682 5680 5677 5675 5673 5671 5670 5669 5669 5669 5670 5672 5673 5674 5675 5677 5679 5680 5681 5683 5684 5685 5686 5687 5687 5687 5687 5688 5689 5690 5692 5693 5695 5696 5697 5699 5700 5701 5703 5704
5689 5686 5684 5682 5681 5679 5677 5676 5674 5672 5671 5670 5670 5671 5671 5672 5673 5674 5675 5675 5676 5677 5678 5678 5679 5679 5679 5679 5679 5679 5679 5679 5680 5681 5682 5684 5686 5687 5690 5692 5694 5696 5697
5689 5687 5684 5683 5681 5680 5679 5677 5675 5674 5672 5671 5671 5671 5671 5671 5671 5671 5671 5672 5672 5672 5672 5673 5673 5672 5672 5671 5670 5670 5669 5669 5669 5670 5671 5673 5675 5678 5680 5683 5685 5688 5689
5690 5687 5685 5683 5682 5681 5680 5678 5677 5675 5674 5673 5672 5671 5670 5670 5669 5669 5669 5669 5669 5668 5668 5668 5667 5666 5665 5664 5663 5662 5661 5660 5660 5660 5662 5663 5666 5668 5671 5674 5676 5678 5680
5692 5689 5687 5685 5683 5682 5681 5679 5678 5676 5675 5674 5673 5672 5671 5670 5669 5669 5668 5667 5667 5666 5665 5663 5662 5661 5660 5659 5658 5657 5656 5655 5654 5653 5654 5655 5657 5660 5662 5665 5667 5668 5670
5695 5692 5690 5688 5686 5685 5683 5682 5681 5679 5678 5676 5675 5674 5672 5671 5670 5669 5668 5667 5665 5664 5662 5660 5658 5656 5656 5655 5654 5653 5653 5651 5650 5649 5649 5650 5652 5653 5655 5657 5659 5660 5661
5698 5696 5694 5692 5690 5688 5687 5685 5684 5683 5681 5680 5679 5677 5675 5674 5672 5671 5669 5667 5666 5663 5661 5658 5656 5654 5653 5652 5652 5651 5650 5649 5648 5648 5648 5648 5649 5650 5650 5651 5652 5653 5654
5702 5700 5698 5696 5694 5692 5691 5689 5688 5686 5685 5684 5682 5681 5679 5677 5675 5673 5671 5669 5666 5664 5661 5658 5656 5654 5652 5651 5650 5649 5648 5648 5647 5647 5646 5646 5646 5646 5646 5646 5646 5647 5647